This is the latest recevied weather packets stored in our database for station/object N0LTM. If no packets are shown the sender has not sent any weather packets the latest 10 day(s).
| Time | Temp. | Humidity | Pressure | Rain* | Wind** | Luminosity | Snow |
|---|---|---|---|---|---|---|---|
| 1777758957 | 13.89° C | 34% | 1016.7 hPa | 0 mm | - | - | - |
| 1777758356 | 13.33° C | 35% | 1016.8 hPa | 0 mm | - | - | - |
| 1777758059 | 13.33° C | 36% | 1016.9 hPa | 0 mm | - | - | - |
| 1777757465 | 12.78° C | 36% | 1016.8 hPa | 0 mm | - | - | - |
| 1777756856 | 13.33° C | 36% | 1017 hPa | 0 mm | - | - | - |
| 1777755355 | 13.33° C | 39% | 1017.3 hPa | 0 mm | - | - | - |
| 1777754765 | 12.78° C | 35% | 1017.3 hPa | 0 mm | - | - | - |
| 1777754459 | 12.78° C | 35% | 1017.5 hPa | 0 mm | - | - | - |
| 1777752954 | 12.22° C | 37% | 1017.8 hPa | 0 mm | - | - | - |
| 1777752652 | 12.22° C | 33% | 1017.8 hPa | 0 mm | - | - | - |
| 1777752355 | 12.78° C | 38% | 1017.9 hPa | 0 mm | - | - | - |
| 1777750854 | 13.89° C | 43% | 1018.1 hPa | 0 mm | - | - | - |
| 1777750254 | 12.22° C | 42% | 1018.3 hPa | 0 mm | - | - | - |
| 1777749052 | 12.78° C | 37% | 1018.5 hPa | 0 mm | - | - | - |
| 1777747852 | 12.78° C | 45% | 1018.9 hPa | 0 mm | - | - | - |
| 1777745754 | 11.67° C | 39% | 1019.1 hPa | 0 mm | - | - | - |
| 1777744555 | 12.22° C | 42% | 1019.2 hPa | 0 mm | - | - | - |
| 1777743058 | 11.11° C | 40% | 1019.5 hPa | 0 mm | - | - | - |
| 1777741851 | 12.22° C | 41% | 1019.5 hPa | 0 mm | - | - | - |
| 1777741552 | 11.67° C | 42% | 1019.6 hPa | 0 mm | - | - | - |
| 1777741253 | 11.67° C | 45% | 1019.7 hPa | 0 mm | - | - | - |
| 1777738251 | 12.22° C | 47% | 1020 hPa | 0 mm | - | - | - |
| 1777735851 | 11.67° C | 50% | 1020.3 hPa | 0 mm | - | - | - |
| 1777735552 | 11.67° C | 51% | 1020.3 hPa | 0 mm | - | - | - |
| 1777733156 | 10° C | 52% | 1020.3 hPa | 0 mm | - | - | - |
* Rain latest hour (hover to see other rain measurements)
** Current wind speed in m/s (hover to see current wind gust speed)